TimeCET,TemperatureF,Dew PointF,Humidity,Sea Level PressureIn,VisibilityMPH,Wind Direction,Wind SpeedMPH,Gust SpeedMPH,PrecipitationIn,Events,Conditions,WindDirDegrees,DateUTC
12:55 AM,41.0,41.0,100,30.06,0.0,SSW,26.5,-,N/A,Fog,Fog,210,2013-10-28 23:55:00
1:00 AM,41,41,100,,0,SSW,26.5,,,Fog,Heavy Fog,210,2013-10-29 00:00:00
1:55 AM,41.0,41.0,100,30.04,0.0,SSW,24.2,-,N/A,Fog,Fog,200,2013-10-29 00:55:00
2:55 AM,41.0,41.0,100,30.04,0.0,South,18.4,-,N/A,Fog-Rain,Light Rain,190,2013-10-29 01:55:00
3:55 AM,41.0,41.0,100,30.01,0.0,SSW,25.3,-,N/A,Fog-Rain,Rain,200,2013-10-29 02:55:00
4:00 AM,41,41,100,,0,SSW,25.3,,,Rain,Rain,200,2013-10-29 03:00:00
4:55 AM,42.8,42.8,100,30.01,0.0,SSW,26.5,-,N/A,Fog-Rain,Rain,200,2013-10-29 03:55:00
5:55 AM,42.8,42.8,100,30.01,0.0,SSW,27.6,-,N/A,Fog-Rain,Rain,200,2013-10-29 04:55:00
6:55 AM,42.8,41.0,93,30.01,0.0,SSW,32.2,-,N/A,Fog-Rain,Rain,210,2013-10-29 05:55:00
7:55 AM,42.8,42.8,100,30.01,0.0,SSW,35.7,-,N/A,Fog-Rain,Light Rain,210,2013-10-29 06:55:00
8:55 AM,42.8,42.8,100,30.01,0.0,SSW,36.8,-,N/A,Fog-Rain,Light Rain,210,2013-10-29 07:55:00
9:55 AM,42.8,42.8,100,30.01,0.0,SW,31.1,-,N/A,Fog-Rain,Light Rain,220,2013-10-29 08:55:00
10:00 AM,43,42,97,,0,SW,31.1,,,Rain,Light Rain,220,2013-10-29 09:00:00
10:55 AM,41.0,41.0,100,30.01,0.0,SW,29.9,-,N/A,Fog-Rain,Light Rain,220,2013-10-29 09:55:00
11:55 AM,41.0,41.0,100,30.01,0.0,SW,34.5,-,N/A,Fog-Rain,Light Rain,220,2013-10-29 10:55:00
12:55 PM,39.2,39.2,100,30.01,0.1,SSW,23.0,-,N/A,Fog-Rain,Rain,210,2013-10-29 11:55:00
1:00 PM,40,39,96,,0,SSW,23.0,,,Rain,Rain,210,2013-10-29 12:00:00
1:55 PM,41.0,39.2,93,30.01,0.6,SW,11.5,-,N/A,Fog,Fog,230,2013-10-29 12:55:00
2:55 PM,39.2,37.4,93,30.01,0.6,SW,10.4,-,N/A,Fog-Rain,Light Rain,230,2013-10-29 13:55:00
3:55 PM,39.2,35.6,87,30.01,0.4,SW,13.8,-,N/A,Fog-Rain,Light Rain,220,2013-10-29 14:55:00
4:00 PM,38,36,88,,0,SW,13.8,,,Rain,Light Rain,220,2013-10-29 15:00:00
4:55 PM,39.2,37.4,93,30.01,0.1,SW,20.7,-,N/A,Fog-Rain,Light Rain,230,2013-10-29 15:55:00
5:55 PM,39.2,39.2,100,30.01,0.0,SW,17.3,-,N/A,Fog,Fog,230,2013-10-29 16:55:00
6:55 PM,41.0,41.0,100,30.01,0.0,SW,24.2,-,N/A,Fog,Fog,220,2013-10-29 17:55:00
7:00 PM,41,40,95,,0,SW,24.2,,,Fog,Heavy Fog,220,2013-10-29 18:00:00
7:55 PM,41.0,39.2,93,30.04,0.0,SSW,23.0,-,N/A,Fog,Fog,210,2013-10-29 18:55:00
8:55 PM,39.2,39.2,100,30.04,0.0,SSW,20.7,-,N/A,Fog-Rain,Light Rain,210,2013-10-29 19:55:00
9:55 PM,39.2,39.2,100,30.04,0.0,SSW,9.2,-,N/A,Fog-Rain,Light Rain,210,2013-10-29 20:55:00
10:00 PM,39,39,98,,0,SSW,9.2,,,Rain,Light Rain,210,2013-10-29 21:00:00
10:55 PM,39.2,39.2,100,30.04,0.0,SSW,8.1,-,N/A,Fog-Rain,Light Rain,210,2013-10-29 21:55:00
11:55 PM,39.2,39.2,100,30.04,0.0,SSW,9.2,-,N/A,Fog,Fog,210,2013-10-29 22:55:00